Location: 81360 Arifat, France
(43.7204°N, 2.3408°E)
Time: 14:54:19
(UTC+02:00)

GHALIB - Pass Details

Date: 07 June 2022
Orbit: 510 x 523 km, 97.6° (Epoch: 04 July)

Event Time Altitude Azimuth Distance (km) Brightness Sun altitude
Exits shadow 02:08:16 - 94° (E) 1,970 ? -23.4°
Maximum altitude 02:10:29 11° 62° (ENE) 1,708 ? -23.4°
Drops below altitude 10° 02:11:24 10° 48° (NE) 1,754 ? -23.4°
Sets 02:15:05 0° 10° (N) 2,645 ? -23.3°
